#timestamp,LO_Frequency,Hit,StdDev 
1630648815.3,286046997.7,N
1630648835.2,286046997.8,N
1630648855.0,286046997.2,N
1630648855.9,286046997.2,N
1630648875.7,286046997.3,N
1630648895.6,286046999.4,N
1630648915.4,286047000.5,N
1630648935.3,286047002.6,N
1630648955.1,286046999.9,N
1630648956.0,286046999.9,N
1630648975.8,286047004.2,N
1630648995.7,286047005.6,N
1630649015.5,286047005.3,N
1630649035.4,286047007.4,N
1630649055.2,286047006.6,N
1630649075.0,286047006.5,N
1630649075.9,286047006.5,N
1630649095.8,286047010.2,N
1630649115.6,286047013.1,Y
1630649135.5,286047014.4,P
1630649155.3,286047015.7,N
1630649175.1,286047019.1,N
1630649195.9,286047017.3,N
1630649215.7,286047019.1,N
1630649235.5,286047024.3,Y
1630649255.4,286047008.5,P
1630649275.2,286047009.2,P
1630649295.1,286047006.1,N
1630649296.0,286047006.1,N
1630649315.8,286047011.6,Y
1630649335.6,286047005.4,P
1630649355.5,286047007.4,P
1630649375.3,286047007.4,P
1630649395.1,286047004.9,Y
1630649415.9,286046998.4,P
1630649435.7,286047000.7,N
1630649455.6,286046999.4,N
1630649475.4,286046999.2,N
1630649495.2,286047001.2,N
1630649515.1,286047002.2,N
1630649516.0,286047002.2,N
1630649535.8,286047002.9,N
1630649555.6,286047001.3,N
1630649575.5,286047007.0,N
1630649595.3,286047007.7,N
1630649615.2,286047007.9,N
1630649635.9,286047012.3,Y
1630649655.7,286047010.7,P
1630649675.6,286047009.5,N
1630649695.4,286047009.8,N
1630649715.2,286047011.8,Y
1630649735.1,286047004.3,P
1630649736.0,286047004.3,N
1630649755.8,286047007.4,P
1630649775.7,286047007.0,Y
1630649795.5,286046999.1,P
1630649815.3,286046996.7,N
1630649835.2,286046996.9,N
1630649855.0,286046998.6,N
1630649855.9,286046998.6,N
1630649875.8,286046998.1,N
1630649895.6,286046998.2,N
1630649915.4,286046998.7,N
1630649935.3,286046996.6,N
1630649955.1,286046997.2,N
1630649975.8,286046998.6,N
1630649995.7,286046999.1,N
1630650015.5,286047002.3,N
1630650035.4,286047000.6,N
1630650055.2,286047000.3,N
1630650075.0,286047004.0,N
1630650075.9,286047004.0,N
1630650095.8,286047003.6,N
1630650115.6,286047003.1,N
1630650135.4,286047006.0,N
1630650155.3,286047003.1,N
1630650175.1,286047005.7,N
1630650195.9,286047001.5,N
1630650215.7,286047001.7,N
1630650235.5,286047003.8,N
1630650255.4,286047003.0,N
1630650275.2,286047005.2,N
1630650295.0,286047004.8,N
1630650295.9,286047004.8,N
1630650315.8,286047009.2,Y
1630650335.6,286047005.4,P
1630650355.5,286047004.7,N
1630650375.3,286047006.5,P
1630650395.1,286047004.6,N
1630650415.9,286047007.4,Y
1630650435.7,286047002.8,P
1630650455.5,286047004.0,P
1630650475.4,286047004.2,P
1630650495.2,286047001.4,N
1630650515.1,286047001.7,N
1630650516.0,286047001.7,N
1630650535.8,286047001.7,N
1630650585.7,286046998.8,E
1630650595.6,286046998.7,N
1630650615.4,286046998.8,P
1630650635.3,286047000.6,P
1630650655.1,286047000.5,N
1630650675.8,286047000.3,N
1630650695.7,286046998.1,N
1630650715.5,286047001.1,N
1630650735.3,286046999.2,N
1630650755.2,286046997.4,N
1630650775.0,286046997.5,N
1630650775.9,286046997.5,N
1630650795.8,286046997.2,N
1630650815.6,286046997.8,N
1630650835.4,286046995.9,Y
1630650855.3,286046993.5,P
1630650875.1,286046996.1,N
1630650895.8,286046991.8,P
1630650915.7,286046990.8,Y
1630650935.5,286046996.1,P
1630650955.4,286046994.6,P
1630650975.2,286046992.3,P
1630650995.0,286046991.5,Y
1630650995.9,286046991.5,P
1630651015.8,286046999.5,N
1630651035.6,286046999.3,N
1630651055.5,286046997.8,N
1630651075.3,286046997.8,N
1630651095.1,286046997.5,N
1630651115.9,286046996.4,N
1630651135.7,286046993.6,N
1630651155.5,286046994.3,N
1630651175.4,286046994.5,N
1630651195.2,286046993.0,N
1630651215.0,286046992.2,Y
1630651216.0,286046992.2,P
1630651235.8,286046996.7,N
1630651255.6,286046995.4,N
1630651275.5,286046993.8,Y
1630651295.3,286047000.5,P
1630651315.1,286046998.8,N
1630651335.9,286046999.2,N
1630651355.7,286046996.7,N
1630651375.6,286046995.8,N
1630651395.4,286046995.5,N
1630651415.2,286046995.0,N
1630651435.1,286046997.6,N
1630651436.0,286046997.6,N
1630651455.8,286046996.7,N
1630651475.6,286046999.1,N
1630651495.5,286046999.0,N
1630651515.3,286046997.7,N
1630651535.2,286046995.6,N
1630651555.9,286046994.6,Y
1630651575.7,286046997.6,P
1630651595.6,286046996.6,P
1630651615.4,286046997.0,P
1630651635.2,286046997.6,Y
1630651655.1,286046998.5,P
1630651656.0,286046998.5,N
1630651675.8,286046999.6,N
1630651695.7,286046998.6,N
1630651715.5,286046999.0,N
1630651735.3,286046997.4,Y
1630651755.2,286046999.3,P
1630651775.0,286046996.8,P
1630651775.9,286046996.8,P
1630651795.7,286046999.6,N
1630651815.6,286046996.8,N
1630651835.4,286046994.9,Y
1630651855.3,286046998.5,P
1630651875.1,286047000.7,N
1630651876.0,286047000.7,N
1630651895.8,286046998.3,N
1630651915.7,286046999.2,N
1630651935.5,286046996.6,Y
1630651955.4,286047000.3,P
1630651975.2,286047000.1,N
1630651995.0,286047000.5,N
1630651995.9,286047000.5,N
1630652015.8,286047000.1,N
1630652035.6,286047002.7,Y
1630652055.4,286046998.4,P
1630652075.3,286046996.7,P
1630652095.1,286046995.6,P
1630652115.9,286046993.4,Y
1630652135.7,286046996.1,P
1630652155.5,286046996.0,P
1630652175.4,286046993.7,P
1630652195.2,286046994.6,Y
1630652215.0,286046997.8,P
1630652216.0,286046997.8,N
1630652235.8,286046997.7,N
1630652255.6,286046995.0,Y
1630652275.5,286047002.5,P
1630652295.3,286047002.5,N
1630652315.1,286047002.0,N
1630652335.9,286047001.1,N
1630652355.7,286046996.9,N
1630652375.6,286046997.4,N
1630652395.4,286046996.7,N
